Regional Weather Roundup
Issued by NWS Sioux Falls, SD

Home | Current Version | Previous Version | Text Only | Print | Product List | Glossary On
Versions: 1 2 3 4 5 6 7 8 9 10 11 12 13 14 15 16 17 18 19 20 21 22 23 24 25 26 27 28 29 30 31 32 33 34 35 36 37 38 39 40 41 42 43 44 45 46 47 48 49 50
000
ASUS43 KFSD 041502
RWRFSD

WEATHER ROUNDUP FOR SE SOUTH DAKOTA/SW MINNESOTA/NW IOWA
NATIONAL WEATHER SERVICE SIOUX FALLS SD
900 AM CST WED MAR 04 2015

NOTE: "FAIR" INDICATES FEW OR NO CLOUDS BELOW 12,000 FEET WITH NO
SIGNIFICANT WEATHER AND OR OBSTRUCTIONS TO VISIBILITY.


SDZ038>040-050-052>070-041600-
SOUTHEAST SOUTH DAKOTA

CITY           SKY/WX    TMP DP  RH WIND       PRES   REMARKS
CHAMBERLAIN    NOT AVBL
HURON          SUNNY      6  -5  60 NW26G35   30.25R WCI -16
MADISON        FAIR       5   0  78 NW20G25   30.17R WCI -15
MITCHELL       SUNNY     10  -1  61 NW28G36   30.27R WCI -12
SIOUX FALLS    MOSUNNY    8   0  69 W14       30.20R WCI  -8
WINNER         FAIR       8  -5  55 NW14      30.26R WCI  -8
YANKTON        SUNNY     14   3  62 NW20G25   30.28R WCI  -3
$$

MNZ071-072-080-081-089-090-097-098-041600-
SOUTHWEST MINNESOTA

CITY           SKY/WX    TMP DP  RH WIND       PRES   REMARKS
FAIRMONT       SUNNY      7  -6  56 W6        30.21R WCI  -3
JACKSON        SUNNY      7  -4  61 W9        30.19R WCI  -7
LUVERNE        SUNNY     10   3  72 W10       30.20R WCI  -3
MARSHALL       CLOUDY     3  -8  60 NW7       30.23R WCI  -9
MONTEVIDEO     PTSUNNY    7   0  72 NW6       30.24R WCI  -3
PIPESTONE      SUNNY      0  -6  78 CALM      30.15R
REDWOOD FALLS  CLOUDY     2  -8  63 NW8       30.23R WCI -12
TRACY          CLOUDY     4  -4  68 W7        30.22R WCI  -8
WINDOM         PTSUNNY    3  -4  72 W8        30.20R WCI -10
WORTHINGTON    SUNNY      7  -2  66 W5        30.19R WCI  -2
$$

IAZ001>003-012>014-020>022-031-032-NEZ013-014-SDZ071-041600-
NORTHWEST IOWA

CITY           SKY/WX    TMP DP  RH WIND       PRES   REMARKS
DENISON        SUNNY     16   5  62 SW5       30.24R WCI   9
ESTHERVILLE    SUNNY      6  -3  66 W8        30.21R WCI  -7
SIOUX CITY     MOSUNNY   19   7  59 VRB7      30.26R WCI  10
SPENCER        SUNNY     11  -1  58 W9        30.21R WCI  -2
$$

ABBREVIATIONS USED IN REMARKS
   TC - TEMPERATURE IN CELSIUS
  WCI - WIND CHILL INDEX
   HX - HEAT INDEX
  VSB - VISIBILITY



USA.gov is the U.S. government's official web portal to all federal, state and local government web resources and services.